Hourly Weather Dzhusinsk

Today, 12 May, Wednesday

Time Temperature Precipitation Wind Pressure Humidity
00:00 +13°C° 0 mm 3 mps 740 mmHg 42%
01:00 +12°C° 0 mm 3 mps 740 mmHg 44%
02:00 +13°C° 0 mm 2 mps 740 mmHg 45%
03:00 +12°C° 0 mm 2 mps 740 mmHg 46%
04:00 +12°C° 0 mm 2 mps 740 mmHg 48%
05:00 +13°C° 0 mm 2 mps 741 mmHg 46%
06:00 +15°C° 0 mm 2 mps 741 mmHg 44%
07:00 +16°C° 0 mm 1 mps 741 mmHg 41%
08:00 +18°C° 0 mm 2 mps 741 mmHg 37%
09:00 +19°C° 0 mm 2 mps 741 mmHg 33%
10:00 +20°C° 0 mm 2 mps 741 mmHg 29%
11:00 +21°C° 0 mm 2 mps 741 mmHg 28%
12:00 +23°C° 0 mm 2 mps 741 mmHg 26%
13:00 +24°C° 0 mm 2 mps 741 mmHg 24%
14:00 +24°C° 0 mm 2 mps 741 mmHg 24%
15:00 +24°C° 0 mm 2 mps 741 mmHg 23%
16:00 +25°C° 0 mm 1 mps 741 mmHg 23%
17:00 +24°C° 0 mm 2 mps 741 mmHg 26%
18:00 +23°C° 0 mm 2 mps 740 mmHg 29%
19:00 +21°C° 0 mm 2 mps 740 mmHg 32%
20:00 +19°C° 0 mm 2 mps 740 mmHg 34%
21:00 +19°C° 0 mm 1 mps 740 mmHg 36%
22:00 +18°C° 0 mm 1 mps 740 mmHg 37%
23:00 +16°C° 0 mm 1 mps 740 mmHg 39%

Tomorrow, 13 May, Thursday

Time Temperature Precipitation Wind Pressure Humidity
00:00 +16°C° 0 mm 1 mps 740 mmHg 40%
01:00 +15°C° 0 mm 1 mps 740 mmHg 41%
02:00 +15°C° 0 mm 1 mps 740 mmHg 42%
03:00 +14°C° 0 mm 1 mps 740 mmHg 44%
04:00 +14°C° 0 mm 1 mps 740 mmHg 45%
05:00 +16°C° 0 mm 1 mps 740 mmHg 42%
06:00 +18°C° 0 mm 1 mps 741 mmHg 39%
07:00 +20°C° 0 mm 1 mps 741 mmHg 36%
08:00 +21°C° 0 mm 2 mps 741 mmHg 32%
09:00 +23°C° 0 mm 2 mps 741 mmHg 29%
10:00 +25°C° 0 mm 2 mps 741 mmHg 25%
11:00 +25°C° 0 mm 1 mps 741 mmHg 23%
12:00 +26°C° 0 mm 1 mps 741 mmHg 21%
13:00 +27°C° 0 mm 1 mps 741 mmHg 20%
14:00 +27°C° 0 mm 1 mps 740 mmHg 19%
15:00 +27°C° 0 mm 1 mps 740 mmHg 19%
16:00 +28°C° 0 mm 2 mps 740 mmHg 19%
17:00 +27°C° 0 mm 2 mps 740 mmHg 22%
18:00 +26°C° 0 mm 2 mps 740 mmHg 25%
19:00 +24°C° 0 mm 2 mps 740 mmHg 28%
20:00 +23°C° 0 mm 2 mps 740 mmHg 29%
21:00 +21°C° 0 mm 3 mps 740 mmHg 30%
22:00 +20°C° 0 mm 3 mps 740 mmHg 31%
23:00 +19°C° 0 mm 3 mps 740 mmHg 34%

Day after tomorrow, 14 May, Friday

Time Temperature Precipitation Wind Pressure Humidity
00:00 +18°C° 0 mm 3 mps 740 mmHg 36%
01:00 +18°C° 0 mm 3 mps 740 mmHg 38%
02:00 +17°C° 0 mm 3 mps 740 mmHg 39%
03:00 +17°C° 0 mm 3 mps 740 mmHg 40%
04:00 +16°C° 0 mm 3 mps 740 mmHg 41%
05:00 +18°C° 0 mm 2 mps 740 mmHg 39%
06:00 +20°C° 0 mm 2 mps 741 mmHg 36%
07:00 +21°C° 0 mm 2 mps 741 mmHg 34%
08:00 +24°C° 0 mm 2 mps 741 mmHg 30%
09:00 +26°C° 0 mm 2 mps 741 mmHg 27%
10:00 +27°C° 0 mm 2 mps 741 mmHg 24%
11:00 +28°C° 0 mm 2 mps 741 mmHg 23%
12:00 +29°C° 0 mm 2 mps 741 mmHg 23%
13:00 +29°C° 0 mm 2 mps 740 mmHg 22%
14:00 +30°C° 0 mm 2 mps 740 mmHg 21%
15:00 +30°C° 0 mm 2 mps 740 mmHg 21%
16:00 +30°C° 0 mm 2 mps 740 mmHg 21%
17:00 +29°C° 0 mm 3 mps 740 mmHg 24%
18:00 +27°C° 0 mm 3 mps 740 mmHg 28%
19:00 +26°C° 0 mm 3 mps 739 mmHg 32%
20:00 +25°C° 0 mm 3 mps 739 mmHg 33%
21:00 +22°C° 0 mm 3 mps 739 mmHg 35%
22:00 +21°C° 0 mm 3 mps 739 mmHg 36%
23:00 +20°C° 0 mm 3 mps 739 mmHg 38%

15 May, Saturday

Time Temperature Precipitation Wind Pressure Humidity
00:00 +20°C° 0 mm 3 mps 739 mmHg 39%
01:00 +19°C° 0 mm 3 mps 739 mmHg 41%
02:00 +19°C° 0 mm 2 mps 739 mmHg 42%
03:00 +18°C° 0 mm 2 mps 739 mmHg 43%
04:00 +18°C° 0 mm 2 mps 739 mmHg 44%
05:00 +20°C° 0 mm 2 mps 739 mmHg 41%
06:00 +22°C° 0 mm 1 mps 740 mmHg 39%
07:00 +24°C° 0 mm 1 mps 740 mmHg 36%
08:00 +26°C° 0 mm 2 mps 740 mmHg 32%
09:00 +27°C° 0 mm 2 mps 740 mmHg 28%
10:00 +29°C° 0 mm 2 mps 740 mmHg 24%
11:00 +29°C° 0 mm 3 mps 739 mmHg 23%
12:00 +30°C° 0 mm 3 mps 739 mmHg 22%
13:00 +31°C° 0 mm 3 mps 739 mmHg 21%
14:00 +31°C° 0 mm 3 mps 739 mmHg 20%
15:00 +31°C° 0 mm 3 mps 738 mmHg 20%
16:00 +31°C° 0 mm 3 mps 738 mmHg 19%
17:00 +30°C° 0 mm 3 mps 738 mmHg 22%
18:00 +28°C° 0 mm 2 mps 738 mmHg 26%
19:00 +27°C° 0 mm 2 mps 737 mmHg 29%
20:00 +26°C° 0 mm 2 mps 737 mmHg 31%
21:00 +24°C° 0 mm 2 mps 737 mmHg 33%
22:00 +22°C° 0 mm 3 mps 737 mmHg 35%
23:00 +21°C° 0 mm 3 mps 737 mmHg 38%

16 May, Sunday

Time Temperature Precipitation Wind Pressure Humidity
00:00 +21°C° 0 mm 3 mps 737 mmHg 41%
01:00 +20°C° 0 mm 3 mps 737 mmHg 44%
02:00 +19°C° 0 mm 2 mps 737 mmHg 46%
03:00 +19°C° 0 mm 2 mps 737 mmHg 48%
04:00 +18°C° 0 mm 2 mps 737 mmHg 49%
05:00 +20°C° 0 mm 2 mps 737 mmHg 47%
06:00 +22°C° 0 mm 1 mps 738 mmHg 44%
07:00 +24°C° 0 mm 1 mps 738 mmHg 42%
08:00 +25°C° 0 mm 1 mps 738 mmHg 38%
09:00 +27°C° 0 mm 1 mps 738 mmHg 33%
10:00 +29°C° 0 mm 1 mps 737 mmHg 29%
11:00 +29°C° 0 mm 1 mps 737 mmHg 27%
12:00 +30°C° 0 mm 1 mps 737 mmHg 24%
13:00 +31°C° 0 mm 2 mps 737 mmHg 22%
14:00 +31°C° 0 mm 2 mps 737 mmHg 21%
15:00 +31°C° 0 mm 2 mps 736 mmHg 21%
16:00 +33°C° 0 mm 3 mps 736 mmHg 21%
17:00 +30°C° 0 mm 3 mps 736 mmHg 25%
18:00 +29°C° 0 mm 2 mps 736 mmHg 28%
19:00 +27°C° 0 mm 2 mps 736 mmHg 32%
20:00 +26°C° 0.1 mm 3 mps 736 mmHg 35%
21:00 +25°C° 0.1 mm 4 mps 736 mmHg 37%
22:00 +23°C° 0.1 mm 4 mps 736 mmHg 40%
23:00 +22°C° 0 mm 3 mps 736 mmHg 43%

17 May, Monday

Time Temperature Precipitation Wind Pressure Humidity
00:00 +23°C° 0 mm 2 mps 735 mmHg 46%
01:00 +22°C° 0 mm 1 mps 735 mmHg 49%
02:00 +21°C° 0 mm 1 mps 735 mmHg 50%
03:00 +21°C° 0 mm 1 mps 735 mmHg 51%
04:00 +20°C° 0 mm 1 mps 735 mmHg 52%
05:00 +22°C° 0 mm 1 mps 736 mmHg 48%
06:00 +23°C° 0 mm 1 mps 736 mmHg 44%
07:00 +25°C° 0 mm 1 mps 736 mmHg 41%
08:00 +26°C° 0 mm 1 mps 736 mmHg 37%
09:00 +28°C° 0 mm 1 mps 736 mmHg 33%
10:00 +29°C° 0 mm 1 mps 736 mmHg 29%
11:00 +30°C° 0 mm 1 mps 736 mmHg 27%
12:00 +31°C° 0 mm 2 mps 735 mmHg 24%
13:00 +32°C° 0 mm 2 mps 735 mmHg 22%
14:00 +32°C° 0 mm 2 mps 735 mmHg 21%
15:00 +33°C° 0 mm 3 mps 734 mmHg 21%
16:00 +33°C° 0 mm 3 mps 734 mmHg 21%
17:00 +31°C° 0 mm 3 mps 734 mmHg 24%
18:00 +30°C° 0 mm 3 mps 733 mmHg 27%
19:00 +28°C° 0 mm 3 mps 733 mmHg 30%
20:00 +27°C° 0 mm 3 mps 733 mmHg 33%
21:00 +25°C° 0 mm 4 mps 733 mmHg 37%
22:00 +23°C° 0 mm 4 mps 733 mmHg 41%
23:00 +22°C° 0 mm 4 mps 733 mmHg 45%
Show more

We Need Your Consent

Meteoprog and our Service Providers may store and access personal data such as cookies, device identifiers or other similar technologies on your device and process such data to personalise content and ads, as well as provide social media features and to analyse the traffic.

  • Store and/or access information on your device

    Cookies, device identifiers or other information can be stored or accessed on your device for the purposes indicated above.

  • Personalised ads and content, ad and content measurement, audience insights, and products development

    Ads and content can be personalised based on a profile. More data can be added to better personalise ads and content. Ad and content performance can be measured. Insights about the audience who saw the ads and content can be derived. Such data can be used to develop or improve user’s experience, systems and software.

By clicking ‘I Agree’ you will allow the use of indicated cookies, device identifiers, web beacons or other similar technologies. Your settings can be changed in the browser on your device.

For certain purposes, legitimate interests may be relied on, rather than consent. You can read more about this in our Privacy and Cookie Policy.